Hourly Data Report for October 08, 2013

All times are specified in Local Standard Time (LST). Add 1 hour to adjust for Daylight Saving Time where and when it is observed.

QIKIQTARJUAQ A
NUNAVUT

67°32'48.000" N
64°01'54.000" W
5.50 m
2400577
YVM

Download Data

Hourly Data (October 2013)
Hourly Data Report for October 8, 2013
Temp Definition
°C
Dew Point Temp Definition
°C
Rel Hum Definition
%
Wind Dir Definition
10's deg

Wind Spd Definition
km/h
Visibility Definition
km
Stn Press Definition
kPa
Hmdx Definition


Wind Chill Definition


Weather Definition


TIME
00:00 Legend Double Dagger -6.6 -10.1 76   0 16.1 101.60     LegendNANA
01:00 Legend Double Dagger -6.4 -10.3 74 18 18 16.1 101.55   -13 LegendNANA
02:00 Legend Double Dagger -6.2 -9.9 75 19 18 16.1 101.47   -13 LegendNANA
03:00 Legend Double Dagger -6.4 -9.5 79 18 8 16.1 101.44   -10 LegendNANA
04:00 Legend Double Dagger -5.9 -9.3 77 19 13 16.1 101.33   -11 LegendNANA
05:00 Legend Double Dagger -5.6 -8.9 78 19 9 16.1 101.27   -10 LegendNANA
06:00 Legend Double Dagger -5.4 -8.8 77 19 9 16.1 101.21   -9 LegendNANA
07:00 Legend Double Dagger -5.3 -8.6 78 LegendMM 4 16.1 101.15   -7 LegendNANA
08:00 Legend Double Dagger -5.0 -7.6 82 12 5 16.1 101.04   -7 LegendNANA
09:00 Legend Double Dagger -4.6 -6.4 87 14 4 2.0 100.91   -6 LegendNANA
10:00 Legend Double Dagger -4.5 -5.8 91   0 1.6 100.79     LegendNANA
11:00 Legend Double Dagger -4.3 -5.3 93 25 5 1.6 100.61   -6 LegendNANA
12:00 Legend Double Dagger -1.2 -3.1 87 8 8 1.2 100.48   -4 LegendNANA
13:00 Legend Double Dagger -1.3 -3.7 84 7 15 1.2 100.34   -6 LegendNANA
14:00 Legend Double Dagger -1.3 -3.1 88 7 22 1.2 100.18   -7 LegendNANA
15:00 Legend Double Dagger -1.3 -3.6 85 LegendMM 4 1.0 100.09   -3 LegendNANA
16:00 Legend Double Dagger -1.7 -3.0 91 7 22 1.2 99.98   -8 LegendNANA
17:00 Legend Double Dagger -2.1 -2.9 94 6 32 1.0 99.87   -9 LegendNANA
18:00 Legend Double Dagger -2.4 -3.4 93 5 30 0.8 99.82   -10 LegendNANA
19:00 Legend Double Dagger -1.9 -2.6 95 4 26 0.8 99.73   -8 LegendNANA
20:00 Legend Double Dagger -1.8 -2.6 94 4 18 1.0 99.63   -7 LegendNANA
21:00 Legend Double Dagger -1.8 -2.6 94 2 30 1.0 99.56   -9 LegendNANA
22:00 Legend Double Dagger -1.9 -2.9 93 1 42 1.6 99.53   -10 LegendNANA
23:00 Legend Double Dagger -1.8 -2.8 93 36 33 2.4 99.51   -9 LegendNANA

Notes on Data Quality.

Legend

  • E = Estimated
  • M = Missing
  • NA = Not Available
  • ‡ = Partner data that is not subject to review by the National Climate Archives
Date modified: